TimeAKDT,TemperatureF,Dew PointF,Humidity,Sea Level PressureIn,VisibilityMPH,Wind Direction,Wind SpeedMPH,Gust SpeedMPH,PrecipitationIn,Events,Conditions,WindDirDegrees,DateUTC
12:16 AM,46.4,42.8,87,29.82,10.0,South,4.6,-,N/A,,Mostly Cloudy,190,2011-10-19 08:16:00
12:36 AM,46.4,41.0,81,29.82,8.0,SSW,5.8,-,N/A,,Overcast,210,2011-10-19 08:36:00
12:56 AM,44.6,41.0,87,29.82,10.0,SSW,3.5,-,N/A,,Overcast,210,2011-10-19 08:56:00
1:16 AM,44.6,41.0,87,29.82,10.0,Calm,Calm,-,N/A,,Overcast,0,2011-10-19 09:16:00
1:36 AM,44.6,42.8,93,29.83,10.0,NNE,3.5,-,N/A,,Overcast,30,2011-10-19 09:36:00
1:56 AM,44.6,41.0,87,29.83,10.0,Calm,Calm,-,N/A,,Overcast,0,2011-10-19 09:56:00
2:16 AM,44.6,41.0,87,29.83,10.0,East,3.5,-,N/A,,Overcast,80,2011-10-19 10:16:00
2:36 AM,44.6,41.0,87,29.83,10.0,Calm,Calm,-,N/A,,Overcast,0,2011-10-19 10:36:00
2:56 AM,44.6,41.0,87,29.83,10.0,North,5.8,-,N/A,,Overcast,360,2011-10-19 10:56:00
3:16 AM,44.6,42.8,93,29.83,10.0,Calm,Calm,-,N/A,,Overcast,0,2011-10-19 11:16:00
3:36 AM,44.6,42.8,93,29.82,10.0,Calm,Calm,-,N/A,,Overcast,0,2011-10-19 11:36:00
3:56 AM,42.8,41.0,93,29.82,10.0,Calm,Calm,-,N/A,,Mostly Cloudy,0,2011-10-19 11:56:00
4:16 AM,42.8,41.0,93,29.82,10.0,West,3.5,-,N/A,,Scattered Clouds,260,2011-10-19 12:16:00
4:36 AM,42.8,39.2,87,29.82,10.0,Calm,Calm,-,N/A,,Mostly Cloudy,0,2011-10-19 12:36:00
4:56 AM,42.8,41.0,93,29.82,10.0,Calm,Calm,-,N/A,,Mostly Cloudy,0,2011-10-19 12:56:00
5:16 AM,42.8,41.0,93,29.82,10.0,SSE,3.5,-,N/A,,Mostly Cloudy,160,2011-10-19 13:16:00
5:36 AM,42.8,41.0,93,29.81,10.0,Calm,Calm,-,N/A,,Overcast,0,2011-10-19 13:36:00
5:56 AM,42.8,39.2,87,29.81,10.0,Calm,Calm,-,N/A,,Overcast,0,2011-10-19 13:56:00
6:16 AM,42.8,41.0,93,29.81,10.0,Calm,Calm,-,N/A,,Overcast,0,2011-10-19 14:16:00
6:36 AM,42.8,41.0,93,29.81,10.0,Calm,Calm,-,N/A,,Overcast,0,2011-10-19 14:36:00
6:56 AM,41.0,39.2,93,29.81,10.0,WSW,3.5,-,N/A,,Overcast,240,2011-10-19 14:56:00
7:16 AM,42.8,39.2,87,29.81,10.0,Calm,Calm,-,N/A,,Mostly Cloudy,0,2011-10-19 15:16:00
7:36 AM,41.0,39.2,93,29.81,10.0,Calm,Calm,-,N/A,,Mostly Cloudy,0,2011-10-19 15:36:00
7:56 AM,42.8,41.0,93,29.81,10.0,Calm,Calm,-,N/A,,Mostly Cloudy,0,2011-10-19 15:56:00
8:16 AM,42.8,41.0,93,29.81,10.0,Calm,Calm,-,N/A,,Mostly Cloudy,0,2011-10-19 16:16:00
8:36 AM,42.8,42.8,100,29.81,10.0,Calm,Calm,-,N/A,,Mostly Cloudy,0,2011-10-19 16:36:00
8:56 AM,42.8,41.0,93,29.81,7.0,Calm,Calm,-,N/A,,Mostly Cloudy,0,2011-10-19 16:56:00
9:16 AM,42.8,41.0,93,29.82,7.0,Calm,Calm,-,N/A,,Mostly Cloudy,0,2011-10-19 17:16:00
9:36 AM,42.8,41.0,93,29.82,7.0,WSW,3.5,-,N/A,,Mostly Cloudy,250,2011-10-19 17:36:00
9:56 AM,42.8,41.0,93,29.82,10.0,Calm,Calm,-,N/A,,Overcast,0,2011-10-19 17:56:00
10:16 AM,42.8,41.0,93,29.83,10.0,West,4.6,-,N/A,,Overcast,260,2011-10-19 18:16:00
10:36 AM,42.8,41.0,93,29.83,10.0,Calm,Calm,-,N/A,,Overcast,0,2011-10-19 18:36:00
10:56 AM,42.8,42.8,100,29.83,10.0,Calm,Calm,-,N/A,,Overcast,0,2011-10-19 18:56:00
11:16 AM,42.8,39.2,87,29.84,10.0,Calm,Calm,-,N/A,,Overcast,0,2011-10-19 19:16:00
11:36 AM,42.8,42.8,100,29.84,10.0,Calm,Calm,-,N/A,,Overcast,0,2011-10-19 19:36:00
11:56 AM,42.8,41.0,93,29.84,7.0,East,3.5,-,N/A,,Overcast,100,2011-10-19 19:56:00
12:16 PM,42.8,41.0,93,29.84,7.0,NE,3.5,-,N/A,,Overcast,50,2011-10-19 20:16:00
12:36 PM,42.8,39.2,87,29.85,7.0,NNE,3.5,-,N/A,,Overcast,20,2011-10-19 20:36:00
12:56 PM,42.8,39.2,87,29.85,10.0,Calm,Calm,-,N/A,,Overcast,0,2011-10-19 20:56:00
1:16 PM,42.8,39.2,87,29.86,10.0,Calm,Calm,-,N/A,,Overcast,0,2011-10-19 21:16:00
1:36 PM,42.8,39.2,87,29.87,10.0,Calm,Calm,-,N/A,,Overcast,0,2011-10-19 21:36:00
1:56 PM,42.8,39.2,87,29.87,10.0,SSE,3.5,-,N/A,,Overcast,160,2011-10-19 21:56:00
2:16 PM,42.8,39.2,87,29.87,10.0,SE,3.5,-,N/A,,Overcast,130,2011-10-19 22:16:00
2:36 PM,42.8,39.2,87,29.87,10.0,Calm,Calm,-,N/A,,Overcast,0,2011-10-19 22:36:00
2:56 PM,42.8,39.2,87,29.87,10.0,Calm,Calm,-,N/A,,Mostly Cloudy,0,2011-10-19 22:56:00
3:16 PM,44.6,39.2,81,29.88,10.0,Calm,Calm,-,N/A,,Mostly Cloudy,0,2011-10-19 23:16:00
3:36 PM,42.8,39.2,87,29.89,10.0,Calm,Calm,-,N/A,,Mostly Cloudy,0,2011-10-19 23:36:00
3:56 PM,42.8,37.4,81,29.89,10.0,Calm,Calm,-,N/A,,Mostly Cloudy,0,2011-10-19 23:56:00
4:16 PM,42.8,39.2,87,29.89,10.0,WNW,4.6,-,N/A,,Mostly Cloudy,300,2011-10-20 00:16:00
4:36 PM,42.8,39.2,87,29.89,10.0,North,3.5,-,N/A,,Mostly Cloudy,350,2011-10-20 00:36:00
4:56 PM,42.8,39.2,87,29.90,10.0,Calm,Calm,-,N/A,,Mostly Cloudy,0,2011-10-20 00:56:00
5:16 PM,42.8,39.2,87,29.90,10.0,Calm,Calm,-,N/A,,Mostly Cloudy,0,2011-10-20 01:16:00
5:36 PM,41.0,39.2,93,29.91,10.0,Calm,Calm,-,N/A,,Mostly Cloudy,0,2011-10-20 01:36:00
5:56 PM,39.2,37.4,93,29.91,10.0,Calm,Calm,-,N/A,,Mostly Cloudy,0,2011-10-20 01:56:00
6:16 PM,39.2,37.4,93,29.91,10.0,South,3.5,-,N/A,,Mostly Cloudy,180,2011-10-20 02:16:00
6:36 PM,37.4,37.4,100,29.92,10.0,Calm,Calm,-,N/A,,Mostly Cloudy,0,2011-10-20 02:36:00
6:56 PM,37.4,35.6,93,29.92,10.0,Calm,Calm,-,N/A,,Mostly Cloudy,0,2011-10-20 02:56:00
7:16 PM,37.4,35.6,93,29.92,10.0,Calm,Calm,-,N/A,,Mostly Cloudy,0,2011-10-20 03:16:00
7:36 PM,37.4,35.6,93,29.93,10.0,South,3.5,-,N/A,,Mostly Cloudy,180,2011-10-20 03:36:00
7:56 PM,37.4,35.6,93,29.94,10.0,Calm,Calm,-,N/A,,Mostly Cloudy,0,2011-10-20 03:56:00
8:16 PM,37.4,35.6,93,29.94,10.0,Calm,Calm,-,N/A,,Mostly Cloudy,0,2011-10-20 04:16:00
8:36 PM,37.4,37.4,100,29.95,10.0,Calm,Calm,-,N/A,,Mostly Cloudy,0,2011-10-20 04:36:00
8:56 PM,39.2,37.4,93,29.95,10.0,WSW,4.6,-,N/A,,Mostly Cloudy,250,2011-10-20 04:56:00
9:16 PM,39.2,37.4,93,29.96,10.0,South,4.6,-,N/A,,Mostly Cloudy,190,2011-10-20 05:16:00
9:36 PM,39.2,37.4,93,29.96,10.0,Calm,Calm,-,N/A,,Mostly Cloudy,0,2011-10-20 05:36:00
9:56 PM,39.2,37.4,93,29.97,10.0,Calm,Calm,-,N/A,,Overcast,0,2011-10-20 05:56:00
10:16 PM,39.2,39.2,100,29.97,10.0,Calm,Calm,-,N/A,,Overcast,0,2011-10-20 06:16:00
10:36 PM,39.2,37.4,93,29.97,10.0,Calm,Calm,-,N/A,,Overcast,0,2011-10-20 06:36:00
10:56 PM,39.2,37.4,93,29.98,10.0,Calm,Calm,-,N/A,,Overcast,0,2011-10-20 06:56:00
11:16 PM,39.2,37.4,93,29.98,10.0,SW,3.5,-,N/A,,Overcast,230,2011-10-20 07:16:00
11:36 PM,39.2,37.4,93,29.98,10.0,Calm,Calm,-,N/A,,Overcast,0,2011-10-20 07:36:00
11:56 PM,37.4,37.4,100,29.98,10.0,Calm,Calm,-,N/A,,Overcast,0,2011-10-20 07:56:00